Time,TemperatureF,DewpointF,PressureIn,WindDirection,WindDirectionDegrees,WindSpeedMPH,WindSpeedGustMPH,Humidity,HourlyPrecipIn,Conditions,Clouds,dailyrainin,SoftwareType,DateUTC
2013-02-26 00:01:00,18.0,9.0,29.79,South,174,4.0,5.0,67,0.00,,,-99.99,,2013-02-26 07:01:00,
2013-02-26 00:11:00,18.0,9.0,29.79,SSE,164,3.0,4.0,68,0.00,,,-99.99,,2013-02-26 07:11:00,
2013-02-26 00:22:00,19.0,10.0,29.78,SSE,152,3.0,4.0,67,0.00,,,-99.99,,2013-02-26 07:22:00,
2013-02-26 00:31:00,17.0,9.0,29.78,SE,141,3.0,4.0,68,0.00,,,-99.99,,2013-02-26 07:31:00,
2013-02-26 00:41:00,18.0,10.0,29.78,ESE,122,3.0,5.0,71,0.00,,,-99.99,,2013-02-26 07:41:00,
2013-02-26 00:51:00,18.0,10.0,29.77,SSE,151,3.0,5.0,71,0.00,,,-99.99,,2013-02-26 07:51:00,
2013-02-26 01:01:00,19.0,11.0,29.78,South,188,2.0,5.0,71,0.00,,,-99.99,,2013-02-26 08:01:00,
2013-02-26 01:11:00,19.0,11.0,29.78,South,176,3.0,4.0,71,0.00,,,-99.99,,2013-02-26 08:11:00,
2013-02-26 01:21:00,19.0,11.0,29.78,SSW,197,3.0,5.0,71,0.00,,,-99.99,,2013-02-26 08:21:00,
2013-02-26 01:31:00,18.0,11.0,29.78,ESE,110,2.0,4.0,72,0.00,,,-99.99,,2013-02-26 08:31:00,
2013-02-26 01:41:00,19.0,12.0,29.77,ESE,103,2.0,5.0,74,0.00,,,-99.99,,2013-02-26 08:41:00,
2013-02-26 01:52:00,19.0,12.0,29.77,East,101,3.0,4.0,73,0.00,,,-99.99,,2013-02-26 08:52:00,
2013-02-26 02:01:00,18.0,11.0,29.77,East,90,2.0,4.0,73,0.00,,,-99.99,,2013-02-26 09:01:00,
2013-02-26 02:11:00,19.0,11.0,29.77,SE,130,3.0,4.0,73,0.00,,,-99.99,,2013-02-26 09:11:00,
2013-02-26 02:21:00,18.0,11.0,29.77,SE,140,2.0,3.0,73,0.00,,,-99.99,,2013-02-26 09:21:00,
2013-02-26 02:31:00,18.0,11.0,29.77,SE,132,1.0,2.0,74,0.00,,,-99.99,,2013-02-26 09:31:00,
2013-02-26 02:43:00,18.0,11.0,29.76,East,90,1.0,4.0,73,0.00,,,-99.99,,2013-02-26 09:43:00,
2013-02-26 02:51:00,18.0,12.0,29.76,North,11,1.0,2.0,75,0.00,,,-99.99,,2013-02-26 09:51:00,
2013-02-26 03:01:00,18.0,12.0,29.76,North,0,3.0,3.0,77,0.00,,,-99.99,,2013-02-26 10:01:00,
2013-02-26 03:11:00,19.0,13.0,29.77,NNW,338,3.0,4.0,77,0.00,,,-99.99,,2013-02-26 10:11:00,
2013-02-26 03:21:00,19.0,13.0,29.77,NNW,328,3.0,4.0,78,0.00,,,-99.99,,2013-02-26 10:21:00,
2013-02-26 03:31:00,19.0,14.0,29.77,WNW,301,3.0,4.0,80,0.00,,,-99.99,,2013-02-26 10:31:00,
2013-02-26 03:41:00,19.0,15.0,29.77,North,11,2.0,4.0,83,0.00,,,-99.99,,2013-02-26 10:41:00,
2013-02-26 03:52:00,19.0,15.0,29.77,WSW,250,0.0,3.0,83,0.00,,,-99.99,,2013-02-26 10:52:00,
2013-02-26 04:01:00,19.0,15.0,29.77,NNE,32,2.0,3.0,83,0.00,,,-99.99,,2013-02-26 11:01:00,
2013-02-26 04:11:00,19.0,15.0,29.77,ESE,102,1.0,4.0,83,0.00,,,-99.99,,2013-02-26 11:11:00,
2013-02-26 04:21:00,19.0,15.0,29.77,SSE,159,3.0,3.0,84,0.00,,,-99.99,,2013-02-26 11:21:00,
2013-02-26 04:32:00,20.0,15.0,29.77,West,270,0.0,4.0,81,0.00,,,-99.99,,2013-02-26 11:32:00,
2013-02-26 04:41:00,20.0,15.0,29.77,North,350,3.0,3.0,81,0.00,,,-99.99,,2013-02-26 11:41:00,
2013-02-26 04:52:00,20.0,15.0,29.77,ENE,69,2.0,4.0,81,0.00,,,-99.99,,2013-02-26 11:52:00,
2013-02-26 05:01:00,20.0,15.0,29.77,West,259,4.0,4.0,81,0.00,,,-99.99,,2013-02-26 12:01:00,
2013-02-26 05:11:00,20.0,15.0,29.77,SW,230,1.0,4.0,80,0.00,,,-99.99,,2013-02-26 12:11:00,
2013-02-26 05:22:00,20.0,15.0,29.77,NNW,330,0.0,2.0,79,0.00,,,-99.99,,2013-02-26 12:22:00,
2013-02-26 05:32:00,20.0,15.0,29.77,SW,216,1.0,1.0,79,0.00,,,-99.99,,2013-02-26 12:32:00,
2013-02-26 05:42:00,21.0,15.0,29.77,NW,314,2.0,3.0,79,0.00,,,-99.99,,2013-02-26 12:42:00,
2013-02-26 05:52:00,21.0,15.0,29.78,WNW,284,3.0,4.0,79,0.00,,,-99.99,,2013-02-26 12:52:00,
2013-02-26 06:01:00,21.0,16.0,29.79,WNW,289,5.0,6.0,80,0.00,,,-99.99,,2013-02-26 13:01:00,
2013-02-26 06:11:00,22.0,16.0,29.78,North,349,2.0,5.0,77,0.00,,,-99.99,,2013-02-26 13:11:00,
2013-02-26 06:21:00,22.0,16.0,29.79,NNW,327,3.0,4.0,77,0.00,,,-99.99,,2013-02-26 13:21:00,
2013-02-26 06:32:00,22.0,16.0,29.79,West,260,1.0,3.0,76,0.00,,,-99.99,,2013-02-26 13:32:00,
2013-02-26 06:42:00,23.0,16.0,29.79,South,190,1.0,2.0,75,0.00,,,-99.99,,2013-02-26 13:42:00,
2013-02-26 06:51:00,23.0,16.0,29.79,ENE,60,0.0,1.0,75,0.00,,,-99.99,,2013-02-26 13:51:00,
2013-02-26 07:01:00,23.0,16.0,29.79,East,90,0.0,1.0,74,0.00,,,-99.99,,2013-02-26 14:01:00,
2013-02-26 07:11:00,23.0,16.0,29.79,WSW,242,3.0,3.0,75,0.00,,,-99.99,,2013-02-26 14:11:00,
2013-02-26 07:21:00,23.0,16.0,29.79,SE,144,1.0,3.0,74,0.00,,,-99.99,,2013-02-26 14:21:00,
2013-02-26 07:31:00,24.0,17.0,29.79,SSE,153,1.0,2.0,76,0.00,,,-99.99,,2013-02-26 14:31:00,
2013-02-26 07:42:00,24.0,17.0,29.79,WSW,254,4.0,4.0,74,0.00,,,-99.99,,2013-02-26 14:42:00,
2013-02-26 07:52:00,24.0,17.0,29.79,West,277,5.0,7.0,73,0.00,,,-99.99,,2013-02-26 14:52:00,
2013-02-26 08:02:00,25.0,17.0,29.80,NW,306,3.0,7.0,72,0.00,,,-99.99,,2013-02-26 15:02:00,
2013-02-26 08:11:00,26.0,18.0,29.82,NE,36,3.0,6.0,70,0.00,,,-99.99,,2013-02-26 15:11:00,
2013-02-26 08:21:00,26.0,17.0,29.82,NE,44,4.0,7.0,70,0.00,,,-99.99,,2013-02-26 15:21:00,
2013-02-26 08:32:00,26.0,17.0,29.82,North,11,3.0,10.0,68,0.00,,,-99.99,,2013-02-26 15:32:00,
2013-02-26 08:41:00,26.0,16.0,29.82,NNE,30,7.0,8.0,65,0.00,,,-99.99,,2013-02-26 15:41:00,
2013-02-26 08:51:00,26.0,15.0,29.83,NNE,25,9.0,10.0,62,0.00,,,-99.99,,2013-02-26 15:51:00,
2013-02-26 09:01:00,27.0,15.0,29.83,North,359,7.0,10.0,61,0.00,,,-99.99,,2013-02-26 16:01:00,
2013-02-26 09:11:00,26.0,15.0,29.83,North,354,7.0,12.0,63,0.00,,,-99.99,,2013-02-26 16:11:00,
2013-02-26 09:22:00,25.0,16.0,29.83,North,358,4.0,11.0,68,0.00,,,-99.99,,2013-02-26 16:22:00,
2013-02-26 09:32:00,25.0,18.0,29.83,NE,49,4.0,8.0,73,0.00,,,-99.99,,2013-02-26 16:32:00,
2013-02-26 09:42:00,26.0,19.0,29.84,NNE,31,3.0,7.0,75,0.00,,,-99.99,,2013-02-26 16:42:00,
2013-02-26 09:51:00,25.0,20.0,29.84,NE,48,3.0,6.0,78,0.00,,,-99.99,,2013-02-26 16:51:00,
2013-02-26 10:01:00,27.0,20.0,29.84,East,82,2.0,3.0,76,0.00,,,-99.99,,2013-02-26 17:01:00,
2013-02-26 10:11:00,26.0,20.0,29.83,East,81,1.0,4.0,76,0.00,,,-99.99,,2013-02-26 17:11:00,
2013-02-26 10:21:00,26.0,20.0,29.83,NNW,339,0.0,3.0,78,0.00,,,-99.99,,2013-02-26 17:21:00,
2013-02-26 10:32:00,26.0,22.0,29.84,NNW,338,4.0,7.0,83,0.00,,,-99.99,,2013-02-26 17:32:00,
2013-02-26 10:41:00,25.0,22.0,29.83,North,7,3.0,5.0,88,0.00,,,-99.99,,2013-02-26 17:41:00,
2013-02-26 10:52:00,25.0,23.0,29.83,NNW,348,3.0,5.0,90,0.00,,,-99.99,,2013-02-26 17:52:00,
2013-02-26 11:01:00,26.0,23.0,29.84,NW,324,1.0,5.0,91,0.00,,,-99.99,,2013-02-26 18:01:00,
2013-02-26 11:12:00,27.0,24.0,29.84,North,0,2.0,4.0,90,0.01,,,-99.99,,2013-02-26 18:12:00,
2013-02-26 11:21:00,27.0,24.0,29.84,NNE,14,2.0,5.0,88,0.01,,,-99.99,,2013-02-26 18:21:00,
2013-02-26 11:32:00,27.0,24.0,29.84,North,11,2.0,5.0,87,0.02,,,-99.99,,2013-02-26 18:32:00,
2013-02-26 11:42:00,28.0,24.0,29.84,NNW,332,2.0,5.0,86,0.03,,,-99.99,,2013-02-26 18:42:00,
2013-02-26 11:52:00,28.0,24.0,29.84,WNW,288,3.0,3.0,84,0.03,,,-99.99,,2013-02-26 18:52:00,
2013-02-26 12:01:00,29.0,24.0,29.83,ENE,60,2.0,3.0,85,0.02,,,-99.99,,2013-02-26 19:01:00,
2013-02-26 12:11:00,30.0,25.0,29.83,South,169,1.0,3.0,82,0.03,,,-99.99,,2013-02-26 19:11:00,
2013-02-26 12:22:00,28.0,24.0,29.82,SSW,193,5.0,5.0,82,0.02,,,-99.99,,2013-02-26 19:22:00,
2013-02-26 12:31:00,28.0,24.0,29.82,SSW,201,4.0,7.0,83,0.02,,,-99.99,,2013-02-26 19:31:00,
2013-02-26 12:41:00,30.0,24.0,29.82,WSW,244,3.0,5.0,79,0.01,,,-99.99,,2013-02-26 19:41:00,
2013-02-26 12:51:00,33.0,24.0,29.82,WNW,288,2.0,5.0,72,0.01,,,-99.99,,2013-02-26 19:51:00,
2013-02-26 13:01:00,32.0,24.0,29.82,SW,216,2.0,5.0,71,0.01,,,-99.99,,2013-02-26 20:01:00,
2013-02-26 13:11:00,33.0,25.0,29.82,West,266,2.0,5.0,73,0.00,,,-99.99,,2013-02-26 20:11:00,
2013-02-26 13:21:00,33.0,24.0,29.82,NE,47,1.0,6.0,72,0.00,,,-99.99,,2013-02-26 20:21:00,
2013-02-26 13:31:00,33.0,23.0,29.82,WSW,258,2.0,6.0,68,0.00,,,-99.99,,2013-02-26 20:31:00,
2013-02-26 13:41:00,32.0,23.0,29.82,North,355,3.0,6.0,66,0.00,,,-99.99,,2013-02-26 20:41:00,
2013-02-26 13:51:00,32.0,23.0,29.83,NNE,14,6.0,6.0,68,0.00,,,-99.99,,2013-02-26 20:51:00,
2013-02-26 14:01:00,31.0,22.0,29.83,NNE,18,13.0,22.0,69,0.00,,,-99.99,,2013-02-26 21:01:00,
2013-02-26 14:11:00,32.0,22.0,29.83,North,11,9.0,17.0,66,0.00,,,-99.99,,2013-02-26 21:11:00,
2013-02-26 14:21:00,31.0,24.0,29.84,NNE,29,17.0,19.0,75,0.00,,,-99.99,,2013-02-26 21:21:00,
2013-02-26 14:31:00,31.0,24.0,29.84,ENE,57,10.0,21.0,77,0.00,,,-99.99,,2013-02-26 21:31:00,
2013-02-26 14:41:00,30.0,24.0,29.85,NNE,28,10.0,17.0,80,0.00,,,-99.99,,2013-02-26 21:41:00,
2013-02-26 14:51:00,29.0,25.0,29.86,NNE,27,9.0,18.0,85,0.00,,,-99.99,,2013-02-26 21:51:00,
2013-02-26 15:01:00,29.0,25.0,29.86,North,359,8.0,18.0,86,0.00,,,-99.99,,2013-02-26 22:01:00,
2013-02-26 15:11:00,29.0,25.0,29.86,NNE,31,8.0,19.0,84,0.00,,,-99.99,,2013-02-26 22:11:00,
2013-02-26 15:21:00,30.0,24.0,29.87,NNE,29,17.0,20.0,80,0.00,,,-99.99,,2013-02-26 22:21:00,
2013-02-26 15:31:00,30.0,21.0,29.87,North,2,18.0,21.0,68,0.00,,,-99.99,,2013-02-26 22:31:00,
2013-02-26 15:41:00,31.0,20.0,29.87,North,7,17.0,27.0,66,0.00,,,-99.99,,2013-02-26 22:41:00,
2013-02-26 15:51:00,30.0,21.0,29.87,North,11,12.0,27.0,67,0.00,,,-99.99,,2013-02-26 22:51:00,
2013-02-26 16:01:00,30.0,22.0,29.89,North,1,18.0,25.0,71,0.00,,,-99.99,,2013-02-26 23:01:00,
2013-02-26 16:11:00,29.0,22.0,29.90,NNE,28,8.0,23.0,74,0.00,,,-99.99,,2013-02-26 23:11:00,
2013-02-26 16:21:00,30.0,22.0,29.90,North,357,13.0,22.0,72,0.00,,,-99.99,,2013-02-26 23:21:00,
2013-02-26 16:31:00,30.0,22.0,29.90,North,5,10.0,18.0,71,0.00,,,-99.99,,2013-02-26 23:31:00,
2013-02-26 16:41:00,30.0,21.0,29.91,NW,319,13.0,21.0,70,0.00,,,-99.99,,2013-02-26 23:41:00,
2013-02-26 16:52:00,30.0,21.0,29.91,NNE,15,10.0,25.0,70,0.00,,,-99.99,,2013-02-26 23:52:00,
2013-02-26 17:01:00,30.0,20.0,29.91,NNE,32,20.0,25.0,67,0.00,,,-99.99,,2013-02-27 00:01:00,
2013-02-26 17:11:00,30.0,21.0,29.92,NNE,18,18.0,24.0,68,0.00,,,-99.99,,2013-02-27 00:11:00,
2013-02-26 17:21:00,29.0,21.0,29.92,NE,39,9.0,24.0,70,0.00,,,-99.99,,2013-02-27 00:21:00,
2013-02-26 17:31:00,29.0,22.0,29.93,NNE,21,9.0,22.0,73,0.00,,,-99.99,,2013-02-27 00:31:00,
2013-02-26 17:41:00,29.0,22.0,29.93,NNE,14,8.0,24.0,73,0.00,,,-99.99,,2013-02-27 00:41:00,
2013-02-26 17:51:00,28.0,22.0,29.94,NNE,19,11.0,23.0,77,0.00,,,-99.99,,2013-02-27 00:51:00,
2013-02-26 18:01:00,28.0,23.0,29.96,NNE,23,13.0,24.0,80,0.00,,,-99.99,,2013-02-27 01:01:00,
2013-02-26 18:11:00,28.0,23.0,29.96,North,7,9.0,18.0,83,0.00,,,-99.99,,2013-02-27 01:11:00,
2013-02-26 18:21:00,27.0,23.0,29.97,North,11,12.0,22.0,84,0.00,,,-99.99,,2013-02-27 01:21:00,
2013-02-26 18:31:00,27.0,23.0,29.97,NNE,23,11.0,24.0,86,0.00,,,-99.99,,2013-02-27 01:31:00,
2013-02-26 18:41:00,27.0,23.0,29.98,NNE,25,13.0,20.0,84,0.00,,,-99.99,,2013-02-27 01:41:00,
2013-02-26 18:51:00,27.0,23.0,29.98,NNE,23,12.0,17.0,83,0.00,,,-99.99,,2013-02-27 01:51:00,
2013-02-26 19:01:00,27.0,23.0,29.99,NE,36,15.0,19.0,81,0.00,,,-99.99,,2013-02-27 02:01:00,
2013-02-26 19:14:00,28.0,22.0,29.99,NNE,26,11.0,17.0,80,0.00,,,-99.99,,2013-02-27 02:14:00,
2013-02-26 19:22:00,28.0,22.0,29.99,NNE,27,17.0,22.0,79,0.00,,,-99.99,,2013-02-27 02:22:00,
2013-02-26 19:32:00,28.0,21.0,30.00,NNE,20,10.0,22.0,74,0.00,,,-99.99,,2013-02-27 02:32:00,
2013-02-26 19:42:00,28.0,20.0,30.01,NNE,16,11.0,24.0,70,0.00,,,-99.99,,2013-02-27 02:42:00,
2013-02-26 19:52:00,29.0,19.0,30.01,NNE,32,19.0,24.0,68,0.00,,,-99.99,,2013-02-27 02:52:00,
2013-02-26 20:01:00,29.0,19.0,30.03,North,358,12.0,21.0,65,0.00,,,-99.99,,2013-02-27 03:01:00,
2013-02-26 20:11:00,29.0,18.0,30.03,North,9,11.0,21.0,64,0.00,,,-99.99,,2013-02-27 03:11:00,
2013-02-26 20:21:00,29.0,18.0,30.03,NNE,14,20.0,24.0,66,0.00,,,-99.99,,2013-02-27 03:21:00,
2013-02-26 20:32:00,28.0,19.0,30.03,NNE,32,14.0,25.0,69,0.00,,,-99.99,,2013-02-27 03:32:00,
2013-02-26 20:41:00,28.0,18.0,30.04,NNE,18,21.0,25.0,66,0.00,,,-99.99,,2013-02-27 03:41:00,
2013-02-26 20:51:00,28.0,18.0,30.05,North,0,8.0,23.0,65,0.00,,,-99.99,,2013-02-27 03:51:00,
2013-02-26 21:01:00,28.0,19.0,30.05,NNE,12,17.0,19.0,68,0.00,,,-99.99,,2013-02-27 04:01:00,
2013-02-26 21:11:00,28.0,19.0,30.06,North,352,7.0,23.0,67,0.00,,,-99.99,,2013-02-27 04:11:00,
2013-02-26 21:21:00,28.0,19.0,30.06,NNE,31,15.0,22.0,67,0.00,,,-99.99,,2013-02-27 04:21:00,
2013-02-26 21:32:00,28.0,18.0,30.06,North,358,9.0,17.0,67,0.00,,,-99.99,,2013-02-27 04:32:00,
2013-02-26 21:41:00,28.0,18.0,30.07,NNE,19,13.0,17.0,66,0.00,,,-99.99,,2013-02-27 04:41:00,
2013-02-26 21:51:00,28.0,19.0,30.07,NE,50,13.0,19.0,67,0.00,,,-99.99,,2013-02-27 04:51:00,
2013-02-26 22:01:00,28.0,19.0,30.07,NNE,18,10.0,18.0,69,0.00,,,-99.99,,2013-02-27 05:01:00,
2013-02-26 22:11:00,28.0,19.0,30.08,North,6,9.0,18.0,69,0.00,,,-99.99,,2013-02-27 05:11:00,
2013-02-26 22:22:00,28.0,18.0,30.08,NNE,14,7.0,18.0,66,0.00,,,-99.99,,2013-02-27 05:22:00,
2013-02-26 22:32:00,27.0,19.0,30.08,NNE,22,8.0,18.0,68,0.00,,,-99.99,,2013-02-27 05:32:00,
2013-02-26 22:41:00,28.0,17.0,30.07,NNE,21,14.0,22.0,64,0.00,,,-99.99,,2013-02-27 05:41:00,
2013-02-26 22:52:00,28.0,17.0,30.08,North,2,9.0,22.0,64,0.00,,,-99.99,,2013-02-27 05:52:00,
2013-02-26 23:02:00,28.0,16.0,30.08,NNE,19,9.0,19.0,62,0.00,,,-99.99,,2013-02-27 06:02:00,
2013-02-26 23:11:00,28.0,15.0,30.08,North,7,8.0,21.0,57,0.00,,,-99.99,,2013-02-27 06:11:00,
2013-02-26 23:21:00,28.0,14.0,30.08,NNE,23,11.0,18.0,56,0.00,,,-99.99,,2013-02-27 06:21:00,
2013-02-26 23:32:00,28.0,14.0,30.10,NNE,26,14.0,21.0,56,0.00,,,-99.99,,2013-02-27 06:32:00,
2013-02-26 23:41:00,28.0,15.0,30.10,NE,42,8.0,20.0,57,0.00,,,-99.99,,2013-02-27 06:41:00,
2013-02-26 23:51:00,27.0,15.0,30.10,NE,39,7.0,19.0,60,0.00,,,-99.99,,2013-02-27 06:51:00,